Location: Viterbo
(42.4170°N, 12.1000°E)
Time: 19:03:11
(UTC+02:00)

ISS - Visible Passes

Search period start: 23 May 2018 00:00
Search period end: 02 June 2018 00:00
Orbit: 402 x 407 km, 51.6° (Epoch: 24 May)

Date Brightness Start Highest point End Pass type
(mag) Time Alt. Az. Time Alt. Az. Time Alt. Az.
23 May -0.7 00:38:52 10° NW 00:41:00 16° N 00:43:09 10° NE visible
23 May -1.5 02:15:33 10° NW 02:18:19 25° NNE 02:21:05 10° ENE visible
23 May -4.0 03:51:48 10° WNW 03:55:02 66° SW 03:58:16 10° SE visible
23 May -2.5 22:08:19 10° W 22:11:27 42° NNW 22:14:35 10° NE visible
23 May -0.8 23:46:17 10° NW 23:48:34 17° N 23:50:49 10° NE visible
24 May -1.1 01:23:26 10° NW 01:25:55 20° NNE 01:27:54 12° NE visible
24 May -1.4 02:59:37 10° NW 03:07:34 - ESE 03:00:18 15° NW visible
24 May -1.6 04:40:48 10° SSW 04:40:48 10° SSW 04:40:55 10° SSW visible
24 May -3.5 21:15:56 10° WSW 21:19:12 71° NNW 21:22:28 10° NE visible
24 May -1.0 22:53:36 10° WNW 22:56:07 20° NNW 22:58:38 10° NE visible
25 May -0.8 00:31:13 10° NW 00:33:29 17° N 00:35:43 10° NE visible
25 May -1.2 02:07:30 10° NW 02:08:18 16° NW 02:08:18 16° NW visible
25 May -1.4 22:00:55 10° WNW 22:03:42 25° NNW 22:06:30 10° NE visible
25 May -0.8 23:38:51 10° NW 23:41:00 16° N 23:43:09 10° NE visible
26 May -1.4 01:15:24 10° NW 01:17:13 23° NNW 01:17:13 23° NNW visible
26 May -2.0 21:08:18 10° W 21:11:20 36° NNW 21:14:24 10° NE visible
26 May -0.8 22:46:17 10° NW 22:48:30 17° N 22:50:43 10° NE visible
27 May -1.4 00:23:16 10° NW 00:25:51 21° NNE 00:26:24 20° NNE visible
27 May -1.0 21:53:36 10° WNW 21:56:01 19° NNW 21:58:26 10° NE visible
27 May -1.0 23:31:03 10° NW 23:33:23 18° N 23:35:40 10° NE visible
28 May -1.2 01:07:16 10° NW 01:08:17 18° NW 01:08:17 18° NW visible
28 May -0.9 22:38:42 10° NW 22:40:52 16° N 22:43:03 10° NE visible
29 May -1.9 00:15:08 10° NW 00:17:36 29° N 00:17:36 29° N visible
29 May -0.9 21:46:10 10° NW 21:48:20 16° N 21:50:31 10° NE visible
29 May -1.6 23:22:59 10° NW 23:25:40 23° NNE 23:26:58 18° NE visible
30 May -0.9 00:59:11 10° WNW 00:59:36 13° WNW 00:59:36 13° WNW visible
30 May -1.2 22:30:46 10° NW 22:33:10 19° NNE 22:35:35 10° ENE visible
31 May -2.1 00:06:56 10° NW 00:08:58 33° NNW 00:08:58 33° NNW visible
31 May -1.1 21:38:25 10° NW 21:40:38 17° N 21:42:50 10° NE visible
31 May -2.6 23:14:45 10° NW 23:17:48 35° NNE 23:18:23 32° NE visible
01 Jun -1.9 22:22:34 10° NW 22:25:21 25° NNE 22:27:49 12° ENE visible
